Perry, IA

2:06 AM CDT on March 24, 2017 (GMT -0500)
Perry Municipal

Weather History for KPRO - March, 2013

Change the Weather History Date:

Wednesday, March 20, 2013

  Actual Average Record
Temperature  
Mean Temperature 20 °F -  
Max Temperature 27 °F 48 °F 78 °F (1976)
Min Temperature 14 °F 28 °F 5 °F (1951)
Degree Days  
Heating Degree Days 44    
Moisture  
Dew Point 12 °F    
Average Humidity 68    
Maximum Humidity 83    
Minimum Humidity 58    
Precipitation  
Precipitation 0.00 in - - ()
Sea Level Pressure  
Sea Level Pressure 30.26 in    
Wind  
Wind Speed 16 mph (NW)    
Max Wind Speed 23 mph    
Max Gust Speed 31 mph    
Visibility 10 miles    
Events Snow    
Averages and records for this station are not official NWS values.
T = Trace of Precipitation, MM = Missing Value Source: NWS Daily Summary

Daily Weather History Graph

Daily Weather History Graph

Search for Another Location

Airport or City:

Trip Planner

Search our weather history database for the weather conditions in past years. The results will help you decide how hot, cold, wet, or windy it might be!

Date:

Astronomy

Mar. 20, 2013 Rise Set
Actual Time 7:19 AM CDT 7:29 PM CDT
Civil Twilight 6:51 AM CDT 7:56 PM CDT
Nautical Twilight 6:19 AM CDT 8:29 PM CDT
Astronomical Twilight 5:46 AM CDT 9:02 PM CDT
Moon 1:00 PM CDT (3/20) 3:04 AM CDT (3/20)
Length of Visible Light 13h 05m
Length of Day
12h 09m
First Quarter, 59% of the Moon is Illuminated
Mar 20
First Quarter
Mar 27
Full
Apr 2
Last Quarter
Apr 10
New
Apr 18
First Quarter

Hourly Weather History & Observations

Time (CDT) Temp. Windchill Dew Point Humidity Pressure Visibility Wind Dir Wind Speed Gust Speed Precip Events Conditions
12:35 AM 22.6 °F 9.2 °F 18.0 °F 82% 30.27 in 10.0 mi North 16.1 mph - N/A Snow Light Snow
12:55 AM 21.9 °F 8.2 °F 17.4 °F 83% 30.27 in 10.0 mi North 16.1 mph - N/A Snow Light Snow
1:15 AM 21.2 °F 8.3 °F 16.7 °F 83% 30.28 in 10.0 mi North 13.8 mph - N/A   Overcast
1:35 AM 21.6 °F 8.2 °F 16.9 °F 82% 30.28 in 10.0 mi NNW 15.0 mph 18.4 mph N/A Snow Light Snow
1:55 AM 22.1 °F 8.5 °F 17.2 °F 82% 30.28 in 10.0 mi NW 16.1 mph 19.6 mph N/A Snow Light Snow
2:15 AM 21.2 °F 5.2 °F 14.4 °F 75% 30.28 in 10.0 mi NNW 21.9 mph - N/A   Overcast
2:35 AM 20.8 °F 6.8 °F 14.7 °F 77% 30.29 in 10.0 mi NW 16.1 mph 21.9 mph N/A Snow Light Snow
2:55 AM 19.9 °F 3.5 °F 12.2 °F 72% 30.30 in 10.0 mi NW 21.9 mph 28.8 mph N/A   Overcast
3:15 AM 20.1 °F 4.6 °F 13.5 °F 75% 30.29 in 10.0 mi NNW 19.6 mph 24.2 mph N/A Snow Light Snow
3:35 AM 19.6 °F 3.5 °F 12.6 °F 74% 30.29 in 10.0 mi NW 20.7 mph 26.5 mph N/A Snow Light Snow
3:55 AM 19.2 °F 3.4 °F 13.8 °F 80% 30.30 in 7.0 mi NW 19.6 mph 25.3 mph N/A Snow Light Snow
4:15 AM 18.5 °F 2.0 °F 11.1 °F 73% 30.29 in 10.0 mi NW 20.7 mph 26.5 mph N/A   Mostly Cloudy
4:35 AM 18.0 °F 1.3 °F 11.3 °F 75% 30.29 in 10.0 mi NNW 20.7 mph 26.5 mph N/A   Scattered Clouds
4:55 AM 17.1 °F -0.6 °F 9.5 °F 72% 30.30 in 10.0 mi NNW 23.0 mph 31.1 mph N/A   Scattered Clouds
5:15 AM 16.5 °F -1.4 °F 8.8 °F 72% 30.31 in 10.0 mi NNW 23.0 mph 26.5 mph N/A   Scattered Clouds
5:55 AM 15.8 °F -0.6 °F 9.1 °F 75% 30.32 in 10.0 mi NNW 18.4 mph - N/A   Mostly Cloudy
6:15 AM 15.6 °F 0.1 °F 9.1 °F 76% 30.33 in 10.0 mi NW 16.1 mph 23.0 mph N/A   Overcast
6:35 AM 15.3 °F -2.2 °F 8.4 °F 74% 30.33 in 10.0 mi NNW 20.7 mph 24.2 mph N/A   Mostly Cloudy
6:55 AM 14.5 °F -2.7 °F 7.2 °F 73% 30.33 in 10.0 mi NNW 19.6 mph 27.6 mph N/A   Scattered Clouds
7:15 AM 14.0 °F -1.4 °F 6.6 °F 72% 30.34 in 10.0 mi NNW 15.0 mph - N/A   Clear
7:35 AM 14.2 °F -1.7 °F 7.7 °F 75% 30.34 in 10.0 mi NW 16.1 mph - N/A   Clear
7:55 AM 14.4 °F 0.9 °F 7.7 °F 75% 30.34 in 10.0 mi NW 11.5 mph - N/A   Clear
8:15 AM 14.7 °F -2.0 °F 6.8 °F 71% 30.35 in 10.0 mi NW 18.4 mph 21.9 mph N/A   Clear
8:35 AM 15.4 °F -0.1 °F 6.8 °F 69% 30.34 in 10.0 mi NW 16.1 mph - N/A   Clear
8:55 AM 15.8 °F -1.5 °F 6.3 °F 66% 30.34 in 10.0 mi NW 20.7 mph 25.3 mph N/A   Clear
9:15 AM 16.5 °F 0.3 °F 6.8 °F 66% 30.33 in 10.0 mi NNW 18.4 mph - N/A   Clear
9:35 AM 17.6 °F 0.9 °F 7.3 °F 64% 30.33 in 10.0 mi NNW 20.7 mph - N/A   Clear
9:55 AM 18.0 °F 1.7 °F 6.8 °F 62% 30.33 in 10.0 mi NNW 19.6 mph 25.3 mph N/A   Scattered Clouds
10:15 AM 18.9 °F 3.8 °F 7.3 °F 61% 30.33 in 10.0 mi NNW 17.3 mph 25.3 mph N/A   Scattered Clouds
10:35 AM 19.4 °F 5.0 °F 8.2 °F 62% 30.33 in 10.0 mi NW 16.1 mph 23.0 mph N/A   Scattered Clouds
10:55 AM 20.3 °F 4.8 °F 8.2 °F 60% 30.33 in 10.0 mi NNW 19.6 mph 23.0 mph N/A   Scattered Clouds
11:15 AM 20.5 °F 6.4 °F 8.1 °F 59% 30.33 in 10.0 mi NW 16.1 mph 26.5 mph N/A   Scattered Clouds
11:35 AM 21.2 °F 5.6 °F 9.0 °F 59% 30.33 in 10.0 mi NW 20.7 mph 27.6 mph N/A   Scattered Clouds
11:55 AM 21.0 °F 6.2 °F 9.1 °F 60% 30.32 in 10.0 mi NNW 18.4 mph 25.3 mph N/A   Scattered Clouds
12:15 PM 22.1 °F 7.2 °F 9.5 °F 58% 30.31 in 10.0 mi NW 19.6 mph 25.3 mph N/A   Scattered Clouds
12:55 PM 23.2 °F 9.4 °F 11.5 °F 61% 30.30 in 10.0 mi NW 17.3 mph 24.2 mph N/A   Scattered Clouds
1:15 PM 23.2 °F 9.4 °F 11.5 °F 61% 30.29 in 10.0 mi NW 17.3 mph 20.7 mph N/A   Scattered Clouds
1:35 PM 23.4 °F 11.1 °F 12.4 °F 63% 30.28 in 10.0 mi NW 13.8 mph 24.2 mph N/A   Scattered Clouds
1:55 PM 24.3 °F 12.7 °F 12.6 °F 61% 30.28 in 10.0 mi WNW 12.7 mph 18.4 mph N/A   Mostly Cloudy
2:15 PM 24.4 °F 13.5 °F 12.4 °F 60% 30.26 in 10.0 mi NW 11.5 mph 23.0 mph N/A   Mostly Cloudy
2:35 PM 24.8 °F 12.9 °F 13.5 °F 62% 30.25 in 10.0 mi NW 13.8 mph - N/A   Overcast
2:55 PM 24.8 °F 12.9 °F 12.6 °F 60% 30.24 in 10.0 mi NW 13.8 mph - N/A   Overcast
3:15 PM 25.5 °F 14.3 °F 14.0 °F 62% 30.23 in 10.0 mi WNW 12.7 mph 21.9 mph N/A   Overcast
3:35 PM 24.3 °F 11.7 °F 12.2 °F 60% 30.22 in 10.0 mi NW 15.0 mph 23.0 mph N/A   Overcast
3:55 PM 25.5 °F 13.8 °F 14.0 °F 62% 30.21 in 10.0 mi WNW 13.8 mph 20.7 mph N/A   Overcast
4:15 PM 26.8 °F 14.5 °F 14.5 °F 60% 30.21 in 10.0 mi WNW 16.1 mph 21.9 mph N/A   Mostly Cloudy
4:35 PM 26.2 °F 14.2 °F 14.2 °F 60% 30.21 in 10.0 mi NW 15.0 mph 24.2 mph N/A   Overcast
4:55 PM 27.1 °F 15.4 °F 14.4 °F 59% 30.20 in 10.0 mi NW 15.0 mph 23.0 mph N/A   Overcast
5:15 PM 26.4 °F 14.5 °F 13.5 °F 58% 30.19 in 10.0 mi NW 15.0 mph - N/A   Mostly Cloudy
5:35 PM 25.7 °F 13.5 °F 13.3 °F 59% 30.19 in 10.0 mi NW 15.0 mph 19.6 mph N/A   Scattered Clouds
5:55 PM 27.3 °F 14.8 °F 14.2 °F 58% 30.18 in 10.0 mi NNW 17.3 mph 21.9 mph N/A   Mostly Cloudy
6:15 PM 25.9 °F 14.3 °F 13.1 °F 58% 30.18 in 10.0 mi NNW 13.8 mph - N/A   Mostly Cloudy
6:35 PM 26.6 °F 15.2 °F 14.0 °F 59% 30.17 in 10.0 mi NW 13.8 mph - N/A   Mostly Cloudy
6:55 PM 26.2 °F 15.2 °F 13.6 °F 59% 30.17 in 10.0 mi NNW 12.7 mph - N/A   Scattered Clouds
7:15 PM 25.7 °F 15.1 °F 13.1 °F 59% 30.17 in 10.0 mi NW 11.5 mph 18.4 mph N/A   Clear
7:35 PM 24.8 °F 14.0 °F 13.1 °F 61% 30.16 in 10.0 mi NNW 11.5 mph - N/A   Clear
7:55 PM 24.4 °F 14.9 °F 14.4 °F 66% 30.16 in 10.0 mi NNW 9.2 mph - N/A   Clear
8:15 PM 24.1 °F 14.4 °F 14.5 °F 67% 30.16 in 10.0 mi NNW 9.2 mph - N/A   Clear
8:35 PM 23.9 °F 15.0 °F 14.5 °F 67% 30.15 in 10.0 mi NNW 8.1 mph - N/A   Clear
9:15 PM 23.0 °F 15.8 °F 15.4 °F 73% 30.15 in 10.0 mi NNW 5.8 mph - N/A   Clear
9:35 PM 22.3 °F 16.1 °F 15.8 °F 76% 30.14 in 10.0 mi NNW 4.6 mph - N/A   Clear
9:55 PM 22.1 °F 13.7 °F 16.0 °F 77% 30.14 in 10.0 mi NW 6.9 mph - N/A   Clear
10:15 PM 21.7 °F 15.5 °F 16.2 °F 79% 30.14 in 10.0 mi NNW 4.6 mph - N/A   Clear
10:35 PM 21.6 °F 13.0 °F 15.6 °F 78% 30.14 in 10.0 mi NNW 6.9 mph - N/A   Clear
10:55 PM 21.2 °F 12.6 °F 14.7 °F 76% 30.14 in 10.0 mi North 6.9 mph - N/A   Clear
11:15 PM 20.5 °F 11.7 °F 14.5 °F 78% 30.14 in 10.0 mi North 6.9 mph - N/A   Clear
11:55 PM 20.1 °F 8.8 °F 13.1 °F 74% 30.13 in 10.0 mi North 10.4 mph - N/A   Clear